FW5345 Weather Reports


Display with metric or nautical units.
time (UTC)temp
F
wind
direction
speed
MPH
gust
MPH
rain 1hr
in
rain 24hr
in
rain mn
in
humidity
%
barometer
mb
20200329234515 53 219 5.0 0.0 0.00 0.10 0.00 58 1.1
20200329233014 53 245 4.0 0.0 0.00 0.10 0.00 59 1.1
20200329231513 53 261 4.0 0.0 0.00 0.10 0.00 59 1.1
20200329230015 53 276 4.0 0.0 0.00 0.10 0.00 59 1.1
20200329224514 53 246 3.0 0.0 0.00 0.10 0.00 59 1.1
20200329223014 53 272 5.0 0.0 0.00 0.10 0.00 59 1.1
20200329221514 52 250 4.0 0.0 0.00 0.10 0.00 63 1.1
20200329220014 51 181 6.0 0.0 0.00 0.10 0.00 64 1.1
20200329214514 51 249 6.0 0.0 0.00 0.10 0.00 61 1.1
20200329213015 52 303 5.0 0.0 0.00 0.10 0.00 62 1.1
20200329211514 52 252 3.0 0.0 0.00 0.10 0.00 64 1.1
20200329210015 51 265 3.0 0.0 0.00 0.10 0.00 65 1.1
20200329204515 50 253 4.0 0.0 0.00 0.10 0.00 66 1.1
20200329203014 50 208 6.0 0.0 0.00 0.10 0.00 64 1.1
20200329201515 50 204 7.0 0.0 0.00 0.10 0.00 65 1.1
20200329200013 50 192 6.0 0.0 0.00 0.10 0.00 63 1.1
20200329194514 51 206 8.0 0.0 0.00 0.10 0.00 62 1.1
20200329193014 52 244 4.0 0.0 0.00 0.10 0.00 62 1.1
20200329191514 51 226 6.0 0.0 0.00 0.10 0.00 64 1.1
20200329190014 51 212 5.0 0.0 0.00 0.10 0.00 67 1.1
20200329184514 50 237 3.0 0.0 0.00 0.10 0.00 70 1.1
20200329183014 49 215 4.0 0.0 0.00 0.10 0.00 72 1.1
20200329181514 49 235 4.0 0.0 0.00 0.10 0.00 76 1.1
20200329180014 46 192 3.0 0.0 0.00 0.10 0.00 83 1.1
20200329174514 45 357 3.0 0.0 0.00 0.10 0.00 86 1.1
20200329173014 45 16 2.0 0.0 0.00 0.10 0.00 86 1.1
20200329171522 44 16 2.0 0.0 0.00 0.10 0.00 87 1.1
20200329170015 44 149 2.0 0.0 0.00 0.10 0.00 88 1.1
20200329164514 43 116 4.0 0.0 0.00 0.10 0.00 90 1.1
20200329163015 42 128 5.0 0.0 0.00 0.10 0.00 91 1.1
20200329161514 41 111 2.0 0.0 0.00 0.10 0.00 94 1.1
20200329160015 41 107 3.0 0.0 0.00 0.10 0.00 96 1.1
20200329154516 40 265 1.0 0.0 0.00 0.10 0.00 96 1.1
20200329153014 40 47 2.0 0.0 0.00 0.10 0.00 96 1.1
20200329151514 39 18 0.0 0.0 0.00 0.10 0.00 97 1.1
20200329150015 39 50 0.0 0.0 0.10 0.10 0.00 96 1.1
20200329144514 39 104 2.0 0.0 0.10 0.10 0.00 96 1.1
20200329143014 39 299 0.0 0.0 0.10 0.10 0.00 95 1.1
20200329141514 40 351 0.0 0.0 0.00 0.00 0.00 95 1.1
20200329140014 39 12 2.0 0.0 0.00 0.00 0.00 95 1.1
20200329134516 39 11 1.0 0.0 0.00 0.00 0.00 95 1.1
20200329133016 39 180 0.0 0.0 0.00 0.00 0.00 94 1.1
20200329131514 39 163 0.0 0.0 0.00 0.00 0.00 94 1.1
20200329130014 39 157 1.0 0.0 0.00 0.00 0.00 93 1.1
20200329124515 39 191 2.0 0.0 0.00 0.00 0.00 93 1.1
20200329123014 39 348 3.0 0.0 0.00 0.00 0.00 94 1.1
20200329121515 37 350 2.0 0.0 0.00 0.00 0.00 96 1.1
20200329120137 40 160 1.0 0.0 0.00 0.00 0.00 91 1.1
20200329110110 40 160 1.0 0.0 0.00 0.00 0.00 91 1.1
20200329104613 40 160 1.0 0.0 0.00 0.00 0.00 91 1.1
20200329103113 40 160 1.0 0.0 0.00 0.00 0.00 91 1.1
20200329101611 41 159 0.0 0.0 0.00 0.00 0.00 91 1.1
20200329091605 41 159 0.0 0.0 0.00 0.00 0.00 91 1.1
20200329090110 41 159 0.0 0.0 0.00 0.00 0.00 91 1.1
20200329084608 41 159 0.0 0.0 0.00 0.00 0.00 91 1.1
20200329083108 40 167 2.0 0.0 0.00 0.00 0.00 90 1.1
20200329064522 41 113 0.0 0.0 0.00 0.00 0.00 87 1.1
20200329063022 41 113 0.0 0.0 0.00 0.00 0.00 87 1.1
20200329061518 41 113 0.0 0.0 0.00 0.00 0.00 87 1.1
20200329060014 41 113 0.0 0.0 0.00 0.00 0.00 87 1.1
20200329054514 42 180 0.0 0.0 0.00 0.00 0.00 86 1.1
20200329053022 42 182 0.0 0.0 0.00 0.00 0.00 85 1.1
20200329051521 42 181 0.0 0.0 0.00 0.00 0.00 84 1.1
20200329050014 43 160 0.0 0.0 0.00 0.00 0.00 84 1.1
20200329044513 43 13 1.0 0.0 0.00 0.00 0.00 83 1.1
20200329043014 43 46 1.0 0.0 0.00 0.00 0.00 83 1.1
20200329041515 43 332 0.0 0.0 0.00 0.00 0.00 82 1.1
20200329040021 43 145 1.0 0.0 0.00 0.00 0.00 82 1.1
20200329034515 44 63 0.0 0.0 0.00 0.00 0.00 81 1.1
20200329033013 44 98 0.0 0.0 0.00 0.00 0.00 80 1.1
20200329031515 45 9 0.0 0.0 0.00 0.00 0.00 79 1.1
20200329030013 45 62 2.0 0.0 0.00 0.00 0.00 77 1.1
20200329024522 46 33 2.0 0.0 0.00 0.00 0.00 76 1.1
20200329023014 47 110 1.0 0.0 0.00 0.00 0.00 76 1.1
20200329021514 47 103 1.0 0.0 0.00 0.00 0.00 74 1.1
20200329020015 48 27 4.0 0.0 0.00 0.00 0.00 72 1.1
20200329014514 48 28 4.0 0.0 0.00 0.00 0.00 72 1.1
20200329013015 49 31 5.0 0.0 0.00 0.00 0.00 69 1.1
20200329011514 50 101 2.0 0.0 0.00 0.00 0.00 67 1.1
20200329010015 50 314 3.0 0.0 0.00 0.00 0.00 66 1.1
20200329004514 52 312 6.0 0.0 0.00 0.00 0.00 60 1.1
20200329003014 52 251 4.0 0.0 0.00 0.00 0.00 60 1.1
20200329001515 52 286 4.0 0.0 0.00 0.00 0.00 59 1.1
20200329000015 52 309 5.0 0.0 0.00 0.00 0.00 60 1.1